| time (UTC) | temp F | wind direction | speed MPH | gust MPH | rain 1hr in | rain 24hr in | rain mn in | humidity % | barometer mb |
| 20260906185731 | 99 | 255 | 14.0 | 14.0 | 0.00 | 0.00 | 0.00 | 100 | 1014.2 |
| 20260906185231 | 99 | 322 | 10.0 | 13.0 | 0.00 | 0.00 | 0.00 | 100 | 1014.3 |
| 20260906185154 | 100 | 312 | 8.0 | 15.0 | 0.00 | 0.00 | 0.00 | 100 | 1014.3 |
| 20260906184731 | 100 | 312 | 8.0 | 15.0 | 0.00 | 0.00 | 0.00 | 100 | 1014.3 |
| 20260906184554 | 100 | 298 | 4.0 | 11.0 | 0.00 | 0.00 | 0.00 | 100 | 1014.2 |
| 20260906184231 | 100 | 298 | 4.0 | 11.0 | 0.00 | 0.00 | 0.00 | 100 | 1014.2 |
| 20260906183731 | 101 | 226 | 3.0 | 10.0 | 0.00 | 0.00 | 0.00 | 100 | 1014.1 |
| 20260906183231 | 102 | 241 | 5.0 | 8.0 | 0.00 | 0.00 | 0.00 | 100 | 1014.2 |
| 20260906182731 | 103 | 258 | 4.0 | 9.0 | 0.00 | 0.00 | 0.00 | 100 | 1014.4 |
| 20260906182231 | 104 | 277 | 4.0 | 9.0 | 0.00 | 0.00 | 0.00 | 100 | 1014.5 |
| 20260906182009 | 107 | 305 | 7.0 | 12.0 | 0.00 | 0.00 | 0.00 | 100 | 1014.5 |
| 20260906181731 | 107 | 305 | 7.0 | 12.0 | 0.00 | 0.00 | 0.00 | 100 | 1014.5 |
| 20260906181654 | 111 | 258 | 6.0 | 15.0 | 0.00 | 0.00 | 0.00 | 100 | 1014.5 |
| 20260906181231 | 111 | 258 | 6.0 | 15.0 | 0.00 | 0.00 | 0.00 | 100 | 1014.5 |
| 20260906181116 | 112 | 285 | 7.0 | 15.0 | 0.00 | 0.00 | 0.00 | 100 | 1014.5 |
| 20260906180731 | 112 | 285 | 7.0 | 15.0 | 0.00 | 0.00 | 0.00 | 100 | 1014.5 |
| 20260906180644 | 113 | 282 | 10.0 | 14.0 | 0.00 | 0.00 | 0.00 | 100 | 1014.5 |
| 20260906180231 | 113 | 282 | 10.0 | 14.0 | 0.00 | 0.00 | 0.00 | 100 | 1014.5 |
| 20260906180116 | 112 | 286 | 5.0 | 14.0 | 0.00 | 0.00 | 0.00 | 100 | 1014.5 |
| 20260906175731 | 112 | 286 | 5.0 | 14.0 | 0.00 | 0.00 | 0.00 | 100 | 1014.5 |
| 20260906175604 | 108 | 324 | 5.0 | 9.0 | 0.00 | 0.00 | 0.00 | 100 | 1014.5 |
| 20260906175231 | 108 | 324 | 5.0 | 9.0 | 0.00 | 0.00 | 0.00 | 100 | 1014.5 |
| 20260906175015 | 106 | 275 | 5.0 | 12.0 | 0.00 | 0.00 | 0.00 | 100 | 1014.6 |
| 20260906174731 | 106 | 275 | 5.0 | 12.0 | 0.00 | 0.00 | 0.00 | 100 | 1014.6 |
| 20260906174611 | 120 | 253 | 9.0 | 13.0 | 0.00 | 0.00 | 0.00 | 100 | 1014.6 |
| 20260906174231 | 120 | 253 | 9.0 | 13.0 | 0.00 | 0.00 | 0.00 | 100 | 1014.6 |
| 20260906173940 | 119 | 338 | 6.0 | 9.0 | 0.00 | 0.00 | 0.00 | 100 | 1014.6 |
| 20260906173731 | 119 | 338 | 6.0 | 9.0 | 0.00 | 0.00 | 0.00 | 100 | 1014.6 |
| 20260906173647 | 128 | 191 | 1.0 | 9.0 | 0.00 | 0.00 | 0.00 | 100 | 1014.4 |
| 20260906173231 | 128 | 191 | 1.0 | 9.0 | 0.00 | 0.00 | 0.00 | 100 | 1014.4 |
| 20260906173138 | 122 | 274 | 5.0 | 12.0 | 0.00 | 0.00 | 0.00 | 100 | 1014.6 |
| 20260906172731 | 122 | 274 | 5.0 | 12.0 | 0.00 | 0.00 | 0.00 | 100 | 1014.6 |
| 20260906172613 | 126 | 306 | 5.0 | 10.0 | 0.00 | 0.00 | 0.00 | 100 | 1014.6 |
| 20260906172231 | 126 | 306 | 5.0 | 10.0 | 0.00 | 0.00 | 0.00 | 100 | 1014.6 |
| 20260906172111 | 116 | 326 | 3.0 | 9.0 | 0.00 | 0.00 | 0.00 | 100 | 1014.8 |
| 20260906171731 | 116 | 326 | 3.0 | 9.0 | 0.00 | 0.00 | 0.00 | 100 | 1014.8 |
| 20260906171647 | 129 | 250 | 0.0 | 10.0 | 0.00 | 0.00 | 0.00 | 100 | 1014.9 |
| 20260906171231 | 129 | 250 | 0.0 | 10.0 | 0.00 | 0.00 | 0.00 | 100 | 1014.9 |
| 20260906171114 | 124 | 337 | 4.0 | 11.0 | 0.00 | 0.00 | 0.00 | 100 | 1014.9 |
| 20260906170731 | 124 | 337 | 4.0 | 11.0 | 0.00 | 0.00 | 0.00 | 100 | 1014.9 |
| 20260906170231 | 120 | 341 | 6.0 | 13.0 | 0.00 | 0.00 | 0.00 | 100 | 1015.0 |
| 20260906170107 | 127 | 296 | 3.0 | 11.0 | 0.00 | 0.00 | 0.00 | 100 | 1014.9 |
| 20260906165731 | 127 | 296 | 3.0 | 11.0 | 0.00 | 0.00 | 0.00 | 100 | 1014.9 |
| 20260906165639 | 127 | 284 | 7.0 | 11.0 | 0.00 | 0.00 | 0.00 | 100 | 1014.9 |
| 20260906165231 | 127 | 284 | 7.0 | 11.0 | 0.00 | 0.00 | 0.00 | 100 | 1014.9 |
| 20260906165015 | 127 | 323 | 5.0 | 10.0 | 0.00 | 0.00 | 0.00 | 100 | 1014.9 |
| 20260906164731 | 127 | 323 | 5.0 | 10.0 | 0.00 | 0.00 | 0.00 | 100 | 1014.9 |
| 20260906164649 | 126 | 334 | 7.0 | 10.0 | 0.00 | 0.00 | 0.00 | 100 | 1015.0 |
| 20260906164231 | 126 | 334 | 7.0 | 10.0 | 0.00 | 0.00 | 0.00 | 100 | 1015.0 |
| 20260906163946 | 126 | 300 | 6.0 | 9.0 | 0.00 | 0.00 | 0.00 | 100 | 1015.1 |
| 20260906163731 | 126 | 300 | 6.0 | 9.0 | 0.00 | 0.00 | 0.00 | 100 | 1015.1 |
| 20260906163608 | 125 | 298 | 4.0 | 11.0 | 0.00 | 0.00 | 0.00 | 100 | 1015.0 |
| 20260906163231 | 125 | 298 | 4.0 | 11.0 | 0.00 | 0.00 | 0.00 | 100 | 1015.0 |
| 20260906162731 | 123 | 292 | 6.0 | 9.0 | 0.00 | 0.00 | 0.00 | 100 | 1015.1 |
| 20260906162231 | 119 | 272 | 6.0 | 6.0 | 0.00 | 0.00 | 0.00 | 100 | 1015.3 |
| 20260906161731 | 109 | 282 | 3.0 | 9.0 | 0.00 | 0.00 | 0.00 | 100 | 1015.4 |
| 20260906161606 | 114 | 28 | 3.0 | 6.0 | 0.00 | 0.00 | 0.00 | 100 | 1015.4 |
| 20260906161526 | 114 | 28 | 3.0 | 6.0 | 0.00 | 0.00 | 0.00 | 100 | 1015.4 |
| 20260906161231 | 114 | 28 | 3.0 | 6.0 | 0.00 | 0.00 | 0.00 | 100 | 1015.4 |
| 20260906161126 | 114 | 267 | 2.0 | 6.0 | 0.00 | 0.00 | 0.00 | 100 | 1015.5 |
| 20260906160732 | 114 | 267 | 2.0 | 6.0 | 0.00 | 0.00 | 0.00 | 100 | 1015.5 |
| 20260906160549 | 102 | 296 | 3.0 | 4.0 | 0.00 | 0.00 | 0.00 | 100 | 1015.6 |
| 20260906160231 | 102 | 296 | 3.0 | 4.0 | 0.00 | 0.00 | 0.00 | 100 | 1015.6 |
| 20260906160114 | 106 | 215 | 1.0 | 6.0 | 0.00 | 0.00 | 0.00 | 100 | 1015.6 |
| 20260906155731 | 106 | 215 | 1.0 | 6.0 | 0.00 | 0.00 | 0.00 | 100 | 1015.6 |
| 20260906155516 | 116 | 271 | 3.0 | 7.0 | 0.00 | 0.00 | 0.00 | 100 | 1015.7 |
| 20260906155231 | 116 | 271 | 3.0 | 7.0 | 0.00 | 0.00 | 0.00 | 100 | 1015.7 |
| 20260906154731 | 102 | 320 | 4.0 | 7.0 | 0.00 | 0.00 | 0.00 | 100 | 1015.7 |
| 20260906154653 | 106 | 292 | 1.0 | 6.0 | 0.00 | 0.00 | 0.00 | 100 | 1015.8 |
| 20260906154231 | 106 | 292 | 1.0 | 6.0 | 0.00 | 0.00 | 0.00 | 100 | 1015.8 |
| 20260906153731 | 116 | 313 | 2.0 | 6.0 | 0.00 | 0.00 | 0.00 | 100 | 1015.8 |
| 20260906153507 | 112 | 61 | 1.0 | 6.0 | 0.00 | 0.00 | 0.00 | 100 | 1015.7 |
| 20260906153231 | 112 | 61 | 1.0 | 6.0 | 0.00 | 0.00 | 0.00 | 100 | 1015.7 |
| 20260906152731 | 104 | 8 | 3.0 | 7.0 | 0.00 | 0.00 | 0.00 | 100 | 1015.6 |
| 20260906152606 | 111 | 14 | 1.0 | 3.0 | 0.00 | 0.00 | 0.00 | 100 | 1015.6 |
| 20260906152533 | 111 | 14 | 1.0 | 3.0 | 0.00 | 0.00 | 0.00 | 100 | 1015.6 |
| 20260906152231 | 111 | 14 | 1.0 | 3.0 | 0.00 | 0.00 | 0.00 | 100 | 1015.6 |
| 20260906152034 | 108 | 223 | 0.0 | 4.0 | 0.00 | 0.00 | 0.00 | 100 | 1015.6 |
| 20260906151732 | 108 | 223 | 0.0 | 4.0 | 0.00 | 0.00 | 0.00 | 100 | 1015.6 |
| 20260906151232 | 106 | 334 | 0.0 | 4.0 | 0.00 | 0.00 | 0.00 | 100 | 1015.7 |
| 20260906150732 | 105 | 4 | 3.0 | 7.0 | 0.00 | 0.00 | 0.00 | 100 | 1015.6 |
| 20260906150232 | 104 | 220 | 0.0 | 5.0 | 0.00 | 0.00 | 0.00 | 100 | 1015.7 |
| 20260906150001 | 101 | 322 | 1.0 | 6.0 | 0.00 | 0.00 | 0.00 | 100 | 1015.7 |
| 20260906145732 | 101 | 322 | 1.0 | 6.0 | 0.00 | 0.00 | 0.00 | 100 | 1015.7 |
| 20260906145232 | 101 | 351 | 4.0 | 4.0 | 0.00 | 0.00 | 0.00 | 100 | 1015.7 |
| 20260906145127 | 101 | 330 | 1.0 | 7.0 | 0.00 | 0.00 | 0.00 | 100 | 1015.7 |
| 20260906144732 | 101 | 330 | 1.0 | 7.0 | 0.00 | 0.00 | 0.00 | 100 | 1015.7 |
| 20260906144712 | 100 | 324 | 1.0 | 6.0 | 0.00 | 0.00 | 0.00 | 100 | 1015.8 |
| 20260906144232 | 100 | 324 | 1.0 | 6.0 | 0.00 | 0.00 | 0.00 | 100 | 1015.8 |
| 20260906144110 | 99 | 319 | 1.0 | 3.0 | 0.00 | 0.00 | 0.00 | 100 | 1015.9 |
| 20260906143732 | 99 | 319 | 1.0 | 3.0 | 0.00 | 0.00 | 0.00 | 100 | 1015.9 |
| 20260906143232 | 95 | 343 | 0.0 | 3.0 | 0.00 | 0.00 | 0.00 | 100 | 1016.0 |
| 20260906143103 | 95 | 11 | 1.0 | 6.0 | 0.00 | 0.00 | 0.00 | 100 | 1015.9 |
| 20260906142732 | 95 | 11 | 1.0 | 6.0 | 0.00 | 0.00 | 0.00 | 100 | 1015.9 |
| 20260906142232 | 98 | 358 | 4.0 | 6.0 | 0.00 | 0.00 | 0.00 | 100 | 1016.0 |
| 20260906142124 | 101 | 351 | 3.0 | 4.0 | 0.00 | 0.00 | 0.00 | 100 | 1015.9 |
| 20260906141732 | 101 | 351 | 3.0 | 4.0 | 0.00 | 0.00 | 0.00 | 100 | 1015.9 |
| 20260906141656 | 103 | 317 | 3.0 | 5.0 | 0.00 | 0.00 | 0.00 | 100 | 1016.0 |
| 20260906141336 | 103 | 291 | 1.0 | 3.0 | 0.00 | 0.00 | 0.00 | 100 | 1016.0 |
| 20260906141232 | 103 | 317 | 3.0 | 5.0 | 0.00 | 0.00 | 0.00 | 100 | 1016.0 |
| 20260906140732 | 103 | 291 | 1.0 | 3.0 | 0.00 | 0.00 | 0.00 | 100 | 1016.0 |
| 20260906140553 | 105 | 345 | 0.0 | 1.0 | 0.00 | 0.00 | 0.00 | 100 | 1016.0 |
| 20260906140232 | 103 | 345 | 0.0 | 0.0 | 0.00 | 0.00 | 0.00 | 100 | 1015.9 |
| 20260906135732 | 105 | 345 | 0.0 | 1.0 | 0.00 | 0.00 | 0.00 | 100 | 1016.0 |
| 20260906135232 | 104 | 21 | 0.0 | 4.0 | 0.00 | 0.00 | 0.00 | 100 | 1015.8 |
| 20260906134732 | 103 | 18 | 2.0 | 3.0 | 0.00 | 0.00 | 0.00 | 100 | 1016.0 |
| 20260906134601 | 103 | 101 | 1.0 | 2.0 | 0.00 | 0.00 | 0.00 | 100 | 1016.0 |
| 20260906134232 | 103 | 101 | 1.0 | 2.0 | 0.00 | 0.00 | 0.00 | 100 | 1016.0 |
| 20260906134110 | 103 | 151 | 0.0 | 1.0 | 0.00 | 0.00 | 0.00 | 100 | 1016.1 |
| 20260906133732 | 103 | 151 | 0.0 | 1.0 | 0.00 | 0.00 | 0.00 | 100 | 1016.1 |
| 20260906133232 | 103 | 129 | 0.0 | 0.0 | 0.00 | 0.00 | 0.00 | 100 | 1016.0 |
| 20260906133109 | 102 | 129 | 0.0 | 0.0 | 0.00 | 0.00 | 0.00 | 100 | 1016.0 |
| 20260906132732 | 102 | 129 | 0.0 | 0.0 | 0.00 | 0.00 | 0.00 | 100 | 1016.0 |
| 20260906132232 | 101 | 129 | 0.0 | 0.0 | 0.00 | 0.00 | 0.00 | 100 | 1015.9 |
| 20260906132101 | 101 | 129 | 0.0 | 2.0 | 0.00 | 0.00 | 0.00 | 100 | 1015.9 |
| 20260906131732 | 101 | 129 | 0.0 | 2.0 | 0.00 | 0.00 | 0.00 | 100 | 1015.9 |
| 20260906131526 | 100 | 99 | 2.0 | 3.0 | 0.00 | 0.00 | 0.00 | 100 | 1015.9 |
| 20260906131232 | 100 | 99 | 2.0 | 3.0 | 0.00 | 0.00 | 0.00 | 100 | 1015.9 |
| 20260906131030 | 99 | 119 | 1.0 | 2.0 | 0.00 | 0.00 | 0.00 | 100 | 1015.8 |
| 20260906130732 | 99 | 119 | 1.0 | 2.0 | 0.00 | 0.00 | 0.00 | 100 | 1015.8 |
| 20260906130232 | 97 | 163 | 1.0 | 2.0 | 0.00 | 0.00 | 0.00 | 100 | 1015.7 |
| 20260906130040 | 97 | 178 | 1.0 | 2.0 | 0.00 | 0.00 | 0.00 | 100 | 1015.6 |
| 20260906125732 | 97 | 178 | 1.0 | 2.0 | 0.00 | 0.00 | 0.00 | 100 | 1015.6 |
| 20260906125533 | 94 | 144 | 0.0 | 3.0 | 0.00 | 0.00 | 0.00 | 100 | 1015.6 |
| 20260906125232 | 94 | 144 | 0.0 | 3.0 | 0.00 | 0.00 | 0.00 | 100 | 1015.6 |
| 20260906125031 | 93 | 146 | 1.0 | 3.0 | 0.00 | 0.00 | 0.00 | 100 | 1015.5 |
| 20260906124732 | 93 | 146 | 1.0 | 3.0 | 0.00 | 0.00 | 0.00 | 100 | 1015.5 |
| 20260906124542 | 89 | 151 | 1.0 | 3.0 | 0.00 | 0.00 | 0.00 | 100 | 1015.5 |
| 20260906124232 | 89 | 151 | 1.0 | 3.0 | 0.00 | 0.00 | 0.00 | 100 | 1015.5 |
| 20260906124037 | 83 | 160 | 2.0 | 3.0 | 0.00 | 0.00 | 0.00 | 100 | 1015.4 |
| 20260906123732 | 83 | 160 | 2.0 | 3.0 | 0.00 | 0.00 | 0.00 | 100 | 1015.4 |
| 20260906123538 | 83 | 210 | 1.0 | 2.0 | 0.00 | 0.00 | 0.00 | 100 | 1015.5 |
| 20260906123232 | 83 | 210 | 1.0 | 2.0 | 0.00 | 0.00 | 0.00 | 100 | 1015.5 |
| 20260906123046 | 82 | 188 | 0.0 | 3.0 | 0.00 | 0.00 | 0.00 | 100 | 1015.4 |
| 20260906122732 | 82 | 188 | 0.0 | 3.0 | 0.00 | 0.00 | 0.00 | 100 | 1015.4 |
| 20260906122232 | 82 | 150 | 0.0 | 0.0 | 0.00 | 0.00 | 0.00 | 100 | 1015.5 |
| 20260906122035 | 81 | 150 | 0.0 | 3.0 | 0.00 | 0.00 | 0.00 | 100 | 1015.5 |
| 20260906121732 | 81 | 150 | 0.0 | 3.0 | 0.00 | 0.00 | 0.00 | 100 | 1015.5 |
| 20260906121232 | 80 | 185 | 0.0 | 0.0 | 0.00 | 0.00 | 0.00 | 100 | 1015.4 |
| 20260906121112 | 80 | 185 | 0.0 | 0.0 | 0.00 | 0.00 | 0.00 | 100 | 1015.4 |
| 20260906120732 | 80 | 185 | 0.0 | 0.0 | 0.00 | 0.00 | 0.00 | 100 | 1015.4 |
| 20260906120232 | 79 | 185 | 0.0 | 0.0 | 0.00 | 0.00 | 0.00 | 100 | 1015.3 |
| 20260906115942 | 78 | 185 | 0.0 | 0.0 | 0.00 | 0.00 | 0.00 | 100 | 1015.2 |
| 20260906115732 | 78 | 185 | 0.0 | 0.0 | 0.00 | 0.00 | 0.00 | 100 | 1015.2 |
| 20260906115531 | 78 | 185 | 0.0 | 0.0 | 0.00 | 0.00 | 0.00 | 100 | 1015.1 |
| 20260906115232 | 78 | 185 | 0.0 | 0.0 | 0.00 | 0.00 | 0.00 | 100 | 1015.1 |
| 20260906115029 | 78 | 185 | 0.0 | 0.0 | 0.00 | 0.00 | 0.00 | 100 | 1014.9 |
| 20260906114732 | 78 | 185 | 0.0 | 0.0 | 0.00 | 0.00 | 0.00 | 100 | 1014.9 |
| 20260906114232 | 77 | 185 | 0.0 | 0.0 | 0.00 | 0.00 | 0.00 | 100 | 1014.9 |
| 20260906114056 | 77 | 185 | 0.0 | 0.0 | 0.00 | 0.00 | 0.00 | 100 | 1014.8 |
| 20260906113732 | 77 | 185 | 0.0 | 0.0 | 0.00 | 0.00 | 0.00 | 100 | 1014.8 |
| 20260906113232 | 77 | 185 | 0.0 | 0.0 | 0.00 | 0.00 | 0.00 | 100 | 1014.7 |
| 20260906112732 | 77 | 185 | 0.0 | 0.0 | 0.00 | 0.00 | 0.00 | 100 | 1014.7 |
| 20260906112232 | 76 | 185 | 0.0 | 0.0 | 0.00 | 0.00 | 0.00 | 100 | 1014.7 |
| 20260906112029 | 76 | 185 | 0.0 | 0.0 | 0.00 | 0.00 | 0.00 | 100 | 1014.7 |
| 20260906111733 | 76 | 185 | 0.0 | 0.0 | 0.00 | 0.00 | 0.00 | 100 | 1014.7 |
| 20260906111233 | 76 | 185 | 0.0 | 0.0 | 0.00 | 0.00 | 0.00 | 100 | 1014.5 |
| 20260906111056 | 76 | 185 | 0.0 | 0.0 | 0.00 | 0.00 | 0.00 | 100 | 1014.5 |
| 20260906110733 | 76 | 185 | 0.0 | 0.0 | 0.00 | 0.00 | 0.00 | 100 | 1014.5 |
| 20260906110439 | 76 | 185 | 0.0 | 0.0 | 0.00 | 0.00 | 0.00 | 100 | 1014.5 |
| 20260906110233 | 76 | 185 | 0.0 | 0.0 | 0.00 | 0.00 | 0.00 | 100 | 1014.5 |
| 20260906105733 | 76 | 185 | 0.0 | 0.0 | 0.00 | 0.00 | 0.00 | 100 | 1014.5 |
| 20260906105233 | 76 | 185 | 0.0 | 0.0 | 0.00 | 0.00 | 0.00 | 100 | 1014.4 |
| 20260906104733 | 76 | 185 | 0.0 | 0.0 | 0.00 | 0.00 | 0.00 | 100 | 1014.2 |
| 20260906104233 | 76 | 185 | 0.0 | 0.0 | 0.00 | 0.00 | 0.00 | 100 | 1014.0 |
| 20260906103733 | 76 | 185 | 0.0 | 0.0 | 0.00 | 0.00 | 0.00 | 100 | 1013.9 |
| 20260906103233 | 76 | 185 | 0.0 | 0.0 | 0.00 | 0.00 | 0.00 | 100 | 1013.9 |
| 20260906103031 | 77 | 185 | 0.0 | 0.0 | 0.00 | 0.00 | 0.00 | 100 | 1013.9 |
| 20260906102733 | 77 | 185 | 0.0 | 0.0 | 0.00 | 0.00 | 0.00 | 100 | 1013.9 |
| 20260906102233 | 77 | 185 | 0.0 | 0.0 | 0.00 | 0.00 | 0.00 | 100 | 1013.8 |
| 20260906101733 | 76 | 185 | 0.0 | 0.0 | 0.00 | 0.00 | 0.00 | 100 | 1013.7 |
| 20260906101233 | 77 | 185 | 0.0 | 0.0 | 0.00 | 0.00 | 0.00 | 100 | 1013.7 |
| 20260906100733 | 76 | 185 | 0.0 | 0.0 | 0.00 | 0.00 | 0.00 | 100 | 1013.5 |
| 20260906100511 | 77 | 185 | 0.0 | 0.0 | 0.00 | 0.00 | 0.00 | 100 | 1013.4 |
| 20260906100233 | 77 | 185 | 0.0 | 0.0 | 0.00 | 0.00 | 0.00 | 100 | 1013.4 |
| 20260906095733 | 77 | 185 | 0.0 | 0.0 | 0.00 | 0.00 | 0.00 | 100 | 1013.4 |
| 20260906095241 | 77 | 185 | 0.0 | 0.0 | 0.00 | 0.00 | 0.00 | 100 | 1013.1 |
| 20260906095233 | 77 | 185 | 0.0 | 0.0 | 0.00 | 0.00 | 0.00 | 100 | 1013.2 |
| 20260906095026 | 126 | 268 | 6.0 | 10.0 | 0.00 | 0.00 | 0.00 | 100 | 1016.2 |
| 20260906095022 | 116 | 279 | 0.0 | 9.0 | 0.00 | 0.00 | 0.00 | 100 | 1016.2 |
| 20260906094733 | 77 | 185 | 0.0 | 0.0 | 0.00 | 0.00 | 0.00 | 100 | 1013.2 |
| 20260906094233 | 77 | 185 | 0.0 | 0.0 | 0.00 | 0.00 | 0.00 | 100 | 1013.1 |
| 20260906093733 | 77 | 185 | 0.0 | 0.0 | 0.00 | 0.00 | 0.00 | 100 | 1013.1 |
| 20260906093233 | 77 | 185 | 0.0 | 0.0 | 0.00 | 0.00 | 0.00 | 100 | 1013.1 |
| 20260906092733 | 77 | 185 | 0.0 | 0.0 | 0.00 | 0.00 | 0.00 | 100 | 1013.2 |
| 20260906092233 | 77 | 185 | 0.0 | 0.0 | 0.00 | 0.00 | 0.00 | 100 | 1013.1 |
| 20260906091733 | 77 | 185 | 0.0 | 0.0 | 0.00 | 0.00 | 0.00 | 100 | 1013.1 |
| 20260906091233 | 77 | 185 | 0.0 | 0.0 | 0.00 | 0.00 | 0.00 | 100 | 1013.0 |
| 20260906090733 | 77 | 185 | 0.0 | 0.0 | 0.00 | 0.00 | 0.00 | 100 | 1013.0 |
| 20260906090233 | 77 | 185 | 0.0 | 0.0 | 0.00 | 0.00 | 0.00 | 100 | 1013.0 |
| 20260906085733 | 77 | 185 | 0.0 | 0.0 | 0.00 | 0.00 | 0.00 | 100 | 1013.0 |
| 20260906085233 | 77 | 185 | 0.0 | 0.0 | 0.00 | 0.00 | 0.00 | 100 | 1013.1 |
| 20260906084733 | 77 | 185 | 0.0 | 0.0 | 0.00 | 0.00 | 0.00 | 100 | 1013.0 |
| 20260906084233 | 77 | 185 | 0.0 | 0.0 | 0.00 | 0.00 | 0.00 | 100 | 1013.0 |
| 20260906083733 | 77 | 185 | 0.0 | 0.0 | 0.00 | 0.00 | 0.00 | 100 | 1013.0 |
| 20260906083233 | 77 | 185 | 0.0 | 0.0 | 0.00 | 0.00 | 0.00 | 100 | 1013.0 |
| 20260906082733 | 77 | 185 | 0.0 | 0.0 | 0.00 | 0.00 | 0.00 | 100 | 1013.2 |
| 20260906082233 | 78 | 185 | 0.0 | 0.0 | 0.00 | 0.00 | 0.00 | 100 | 1013.4 |
| 20260906081733 | 77 | 185 | 0.0 | 0.0 | 0.00 | 0.00 | 0.00 | 100 | 1013.4 |
| 20260906081233 | 78 | 185 | 0.0 | 0.0 | 0.00 | 0.00 | 0.00 | 100 | 1013.4 |
| 20260906080937 | 78 | 185 | 0.0 | 0.0 | 0.00 | 0.00 | 0.00 | 100 | 1013.5 |
| 20260906080733 | 78 | 185 | 0.0 | 0.0 | 0.00 | 0.00 | 0.00 | 100 | 1013.5 |
| 20260906080233 | 78 | 185 | 0.0 | 0.0 | 0.00 | 0.00 | 0.00 | 100 | 1013.4 |
| 20260906075953 | 78 | 185 | 0.0 | 0.0 | 0.00 | 0.00 | 0.00 | 100 | 1013.3 |
| 20260906075733 | 78 | 185 | 0.0 | 0.0 | 0.00 | 0.00 | 0.00 | 100 | 1013.3 |
| 20260906075233 | 78 | 185 | 0.0 | 2.0 | 0.00 | 0.00 | 0.00 | 100 | 1013.4 |
| 20260906074733 | 78 | 220 | 1.0 | 1.0 | 0.00 | 0.00 | 0.00 | 100 | 1013.5 |
| 20260906074233 | 78 | 135 | 0.0 | 1.0 | 0.00 | 0.00 | 0.00 | 100 | 1013.6 |
| 20260906073733 | 78 | 113 | 0.0 | 0.0 | 0.00 | 0.00 | 0.00 | 100 | 1013.6 |
| 20260906073512 | 78 | 113 | 0.0 | 0.0 | 0.00 | 0.00 | 0.00 | 100 | 1013.6 |
| 20260906073233 | 78 | 113 | 0.0 | 0.0 | 0.00 | 0.00 | 0.00 | 100 | 1013.6 |
| 20260906072733 | 78 | 113 | 0.0 | 0.0 | 0.00 | 0.00 | 0.00 | 100 | 1013.8 |
| 20260906072234 | 78 | 113 | 0.0 | 0.0 | 0.00 | 0.00 | 0.00 | 100 | 1013.8 |
| 20260906071734 | 78 | 113 | 0.0 | 0.0 | 0.00 | 0.00 | 0.00 | 100 | 1013.9 |
| 20260906071234 | 78 | 113 | 0.0 | 0.0 | 0.00 | 0.00 | 0.00 | 100 | 1013.9 |
| 20260906070734 | 78 | 113 | 0.0 | 0.0 | 0.00 | 0.00 | 0.00 | 100 | 1013.9 |
| 20260906070234 | 78 | 113 | 0.0 | 0.0 | 0.00 | 0.00 | 0.00 | 100 | 1013.9 |
| 20260906065734 | 78 | 113 | 0.0 | 0.0 | 0.00 | 0.00 | 0.00 | 100 | 1013.9 |
| 20260906065234 | 78 | 113 | 0.0 | 0.0 | 0.00 | 0.00 | 0.00 | 100 | 1014.0 |
| 20260906064734 | 79 | 113 | 0.0 | 0.0 | 0.00 | 0.00 | 0.00 | 100 | 1014.0 |
| 20260906064234 | 79 | 113 | 0.0 | 0.0 | 0.00 | 0.00 | 0.00 | 100 | 1013.9 |
| 20260906063734 | 79 | 113 | 0.0 | 0.0 | 0.00 | 0.00 | 0.00 | 100 | 1014.1 |
| 20260906063234 | 78 | 113 | 0.0 | 0.0 | 0.00 | 0.00 | 0.00 | 100 | 1014.2 |
| 20260906062734 | 79 | 113 | 0.0 | 0.0 | 0.00 | 0.00 | 0.00 | 100 | 1014.4 |
| 20260906062234 | 79 | 113 | 0.0 | 2.0 | 0.00 | 0.00 | 0.00 | 100 | 1014.6 |
| 20260906061941 | 79 | 129 | 1.0 | 2.0 | 0.00 | 0.00 | 0.00 | 100 | 1014.6 |
| 20260906061734 | 79 | 129 | 1.0 | 2.0 | 0.00 | 0.00 | 0.00 | 100 | 1014.6 |
| 20260906061234 | 79 | 156 | 1.0 | 2.0 | 0.00 | 0.00 | 0.00 | 100 | 1014.7 |
| 20260906060734 | 79 | 171 | 0.0 | 0.0 | 0.00 | 0.00 | 0.00 | 100 | 1014.7 |
| 20260906060234 | 79 | 171 | 0.0 | 0.0 | 0.00 | 0.00 | 0.00 | 100 | 1014.7 |
| 20260906055734 | 79 | 171 | 0.0 | 0.0 | 0.00 | 0.00 | 0.00 | 100 | 1014.8 |
| 20260906055234 | 79 | 171 | 0.0 | 0.0 | 0.00 | 0.00 | 0.00 | 100 | 1014.9 |
| 20260906054944 | 79 | 171 | 0.0 | 0.0 | 0.00 | 0.00 | 0.00 | 100 | 1015.0 |
| 20260906054734 | 79 | 171 | 0.0 | 0.0 | 0.00 | 0.00 | 0.00 | 100 | 1015.0 |
| 20260906054234 | 79 | 171 | 0.0 | 0.0 | 0.00 | 0.00 | 0.00 | 100 | 1015.1 |
| 20260906053734 | 79 | 171 | 0.0 | 0.0 | 0.00 | 0.00 | 0.00 | 100 | 1015.2 |
| 20260906053234 | 79 | 171 | 0.0 | 0.0 | 0.00 | 0.00 | 0.00 | 100 | 1015.2 |
| 20260906052734 | 79 | 171 | 0.0 | 0.0 | 0.00 | 0.00 | 0.00 | 100 | 1015.1 |
| 20260906052500 | 79 | 171 | 0.0 | 0.0 | 0.00 | 0.00 | 0.00 | 100 | 1015.1 |
| 20260906052234 | 79 | 171 | 0.0 | 0.0 | 0.00 | 0.00 | 0.00 | 100 | 1015.1 |
| 20260906051734 | 80 | 171 | 0.0 | 0.0 | 0.00 | 0.00 | 0.00 | 100 | 1015.0 |
| 20260906051234 | 80 | 171 | 0.0 | 0.0 | 0.00 | 0.00 | 0.00 | 100 | 1014.9 |
| 20260906050734 | 80 | 171 | 0.0 | 0.0 | 0.00 | 0.00 | 0.00 | 100 | 1015.0 |
| 20260906050500 | 80 | 171 | 0.0 | 0.0 | 0.00 | 0.00 | 0.00 | 100 | 1015.0 |
| 20260906050234 | 80 | 171 | 0.0 | 0.0 | 0.00 | 0.00 | 0.00 | 100 | 1015.0 |
| 20260906045734 | 80 | 171 | 0.0 | 0.0 | 0.00 | 0.00 | 0.00 | 100 | 1015.0 |
| 20260906045234 | 80 | 171 | 0.0 | 0.0 | 0.00 | 0.00 | 0.00 | 100 | 1014.9 |
| 20260906044734 | 80 | 171 | 0.0 | 0.0 | 0.00 | 0.00 | 0.00 | 100 | 1015.0 |
| 20260906044234 | 80 | 171 | 0.0 | 0.0 | 0.00 | 0.00 | 0.00 | 100 | 1015.0 |
| 20260906043734 | 80 | 171 | 0.0 | 2.0 | 0.00 | 0.00 | 0.00 | 100 | 1014.9 |
| 20260906043234 | 80 | 209 | 1.0 | 2.0 | 0.00 | 0.00 | 0.00 | 100 | 1014.9 |
| 20260906042734 | 80 | 187 | 1.0 | 2.0 | 0.00 | 0.00 | 0.00 | 100 | 1015.0 |
| 20260906042234 | 80 | 223 | 0.0 | 0.0 | 0.00 | 0.00 | 0.00 | 100 | 1015.0 |
| 20260906041734 | 81 | 223 | 0.0 | 0.0 | 0.00 | 0.00 | 0.00 | 100 | 1015.2 |
| 20260906041234 | 81 | 223 | 0.0 | 0.0 | 0.00 | 0.00 | 0.00 | 100 | 1015.2 |
| 20260906040734 | 81 | 223 | 0.0 | 0.0 | 0.00 | 0.00 | 0.00 | 100 | 1015.3 |
| 20260906040234 | 81 | 223 | 0.0 | 0.0 | 0.00 | 0.00 | 0.00 | 100 | 1015.5 |
| 20260906040015 | 81 | 223 | 0.0 | 2.0 | 0.00 | 0.00 | 0.00 | 100 | 1015.4 |
| 20260906035734 | 81 | 223 | 0.0 | 2.0 | 0.00 | 0.00 | 0.00 | 100 | 1015.4 |
| 20260906035234 | 81 | 175 | 0.0 | 3.0 | 0.00 | 0.00 | 0.00 | 100 | 1015.5 |
| 20260906034940 | 81 | 158 | 0.0 | 2.0 | 0.00 | 0.00 | 0.00 | 100 | 1015.6 |
| 20260906034734 | 81 | 158 | 0.0 | 2.0 | 0.00 | 0.00 | 0.00 | 100 | 1015.6 |
| 20260906034234 | 81 | 205 | 1.0 | 3.0 | 0.00 | 0.00 | 0.00 | 100 | 1015.7 |
| 20260906033939 | 81 | 78 | 0.0 | 3.0 | 0.00 | 0.00 | 0.00 | 100 | 1015.7 |
| 20260906033734 | 81 | 78 | 0.0 | 3.0 | 0.00 | 0.00 | 0.00 | 100 | 1015.7 |
| 20260906033425 | 81 | 150 | 2.0 | 5.0 | 0.00 | 0.00 | 0.00 | 100 | 1015.7 |
| 20260906033234 | 81 | 150 | 2.0 | 5.0 | 0.00 | 0.00 | 0.00 | 100 | 1015.7 |
| 20260906032734 | 82 | 178 | 0.0 | 2.0 | 0.00 | 0.00 | 0.00 | 100 | 1015.7 |
| 20260906032438 | 82 | 151 | 0.0 | 2.0 | 0.00 | 0.00 | 0.00 | 100 | 1015.6 |
| 20260906032235 | 82 | 151 | 0.0 | 2.0 | 0.00 | 0.00 | 0.00 | 100 | 1015.6 |
| 20260906031735 | 82 | 151 | 2.0 | 3.0 | 0.00 | 0.00 | 0.00 | 100 | 1015.6 |
| 20260906031235 | 82 | 168 | 2.0 | 4.0 | 0.00 | 0.00 | 0.00 | 100 | 1015.6 |
| 20260906030850 | 82 | 146 | 2.0 | 4.0 | 0.00 | 0.00 | 0.00 | 100 | 1015.6 |
| 20260906030735 | 82 | 146 | 2.0 | 4.0 | 0.00 | 0.00 | 0.00 | 100 | 1015.6 |
| 20260906030235 | 81 | 146 | 2.0 | 5.0 | 0.00 | 0.00 | 0.00 | 100 | 1015.6 |
| 20260906025735 | 81 | 94 | 3.0 | 6.0 | 0.00 | 0.00 | 0.00 | 100 | 1015.6 |
| 20260906025405 | 81 | 344 | 0.0 | 0.0 | 0.00 | 0.00 | 0.00 | 100 | 1015.6 |
| 20260906025235 | 81 | 344 | 0.0 | 0.0 | 0.00 | 0.00 | 0.00 | 100 | 1015.6 |
| 20260906024938 | 81 | 344 | 0.0 | 0.0 | 0.00 | 0.00 | 0.00 | 100 | 1015.6 |
| 20260906024735 | 81 | 344 | 0.0 | 0.0 | 0.00 | 0.00 | 0.00 | 100 | 1015.6 |
| 20260906024235 | 82 | 344 | 0.0 | 0.0 | 0.00 | 0.00 | 0.00 | 100 | 1015.6 |
| 20260906023735 | 82 | 344 | 0.0 | 0.0 | 0.00 | 0.00 | 0.00 | 100 | 1015.7 |
| 20260906023443 | 82 | 344 | 0.0 | 0.0 | 0.00 | 0.00 | 0.00 | 100 | 1015.7 |
| 20260906023235 | 82 | 344 | 0.0 | 0.0 | 0.00 | 0.00 | 0.00 | 100 | 1015.7 |
| 20260906022943 | 82 | 344 | 0.0 | 0.0 | 0.00 | 0.00 | 0.00 | 100 | 1015.7 |
| 20260906022735 | 82 | 344 | 0.0 | 0.0 | 0.00 | 0.00 | 0.00 | 100 | 1015.7 |
| 20260906022501 | 82 | 344 | 0.0 | 0.0 | 0.00 | 0.00 | 0.00 | 100 | 1015.7 |
| 20260906022235 | 82 | 344 | 0.0 | 0.0 | 0.00 | 0.00 | 0.00 | 100 | 1015.7 |
| 20260906021735 | 82 | 344 | 0.0 | 0.0 | 0.00 | 0.00 | 0.00 | 100 | 1015.8 |
| 20260906021523 | 82 | 344 | 0.0 | 0.0 | 0.00 | 0.00 | 0.00 | 100 | 1015.9 |
| 20260906021235 | 82 | 344 | 0.0 | 0.0 | 0.00 | 0.00 | 0.00 | 100 | 1015.8 |
| 20260906021011 | 82 | 344 | 0.0 | 0.0 | 0.00 | 0.00 | 0.00 | 100 | 1015.9 |
| 20260906020735 | 82 | 344 | 0.0 | 0.0 | 0.00 | 0.00 | 0.00 | 100 | 1015.9 |
| 20260906020505 | 82 | 344 | 0.0 | 0.0 | 0.00 | 0.00 | 0.00 | 100 | 1015.9 |
| 20260906020235 | 82 | 344 | 0.0 | 0.0 | 0.00 | 0.00 | 0.00 | 100 | 1015.9 |
| 20260906015946 | 82 | 344 | 0.0 | 0.0 | 0.00 | 0.00 | 0.00 | 100 | 1015.8 |
| 20260906015735 | 82 | 344 | 0.0 | 0.0 | 0.00 | 0.00 | 0.00 | 100 | 1015.8 |
| 20260906015235 | 82 | 344 | 0.0 | 0.0 | 0.00 | 0.00 | 0.00 | 100 | 1015.7 |
| 20260906015015 | 82 | 344 | 0.0 | 0.0 | 0.00 | 0.00 | 0.00 | 100 | 1015.7 |
| 20260906014735 | 82 | 344 | 0.0 | 0.0 | 0.00 | 0.00 | 0.00 | 100 | 1015.7 |
| 20260906014235 | 82 | 344 | 0.0 | 0.0 | 0.00 | 0.00 | 0.00 | 100 | 1015.6 |
| 20260906014018 | 82 | 344 | 0.0 | 0.0 | 0.00 | 0.00 | 0.00 | 100 | 1015.5 |
| 20260906013735 | 82 | 344 | 0.0 | 0.0 | 0.00 | 0.00 | 0.00 | 100 | 1015.5 |
| 20260906013555 | 82 | 344 | 0.0 | 0.0 | 0.00 | 0.00 | 0.00 | 100 | 1015.5 |
| 20260906013235 | 82 | 344 | 0.0 | 0.0 | 0.00 | 0.00 | 0.00 | 100 | 1015.5 |
| 20260906012735 | 83 | 344 | 0.0 | 0.0 | 0.00 | 0.00 | 0.00 | 100 | 1015.5 |
| 20260906012235 | 83 | 344 | 0.0 | 0.0 | 0.00 | 0.00 | 0.00 | 100 | 1015.4 |
| 20260906011959 | 83 | 344 | 0.0 | 0.0 | 0.00 | 0.00 | 0.00 | 100 | 1015.2 |
| 20260906011735 | 83 | 344 | 0.0 | 0.0 | 0.00 | 0.00 | 0.00 | 100 | 1015.2 |
| 20260906011501 | 83 | 344 | 0.0 | 0.0 | 0.00 | 0.00 | 0.00 | 100 | 1015.1 |
| 20260906011235 | 83 | 344 | 0.0 | 0.0 | 0.00 | 0.00 | 0.00 | 100 | 1015.1 |
| 20260906010735 | 83 | 344 | 0.0 | 0.0 | 0.00 | 0.00 | 0.00 | 100 | 1015.2 |
| 20260906010235 | 83 | 344 | 0.0 | 0.0 | 0.00 | 0.00 | 0.00 | 100 | 1015.1 |
| 20260906005735 | 83 | 344 | 0.0 | 0.0 | 0.00 | 0.00 | 0.00 | 100 | 1015.0 |
| 20260906005235 | 84 | 344 | 0.0 | 0.0 | 0.00 | 0.00 | 0.00 | 100 | 1014.9 |
| 20260906004735 | 84 | 344 | 0.0 | 0.0 | 0.00 | 0.00 | 0.00 | 100 | 1014.9 |
| 20260906004235 | 84 | 344 | 0.0 | 0.0 | 0.00 | 0.00 | 0.00 | 100 | 1015.0 |
| 20260906003735 | 84 | 344 | 0.0 | 0.0 | 0.00 | 0.00 | 0.00 | 100 | 1014.9 |
| 20260906003235 | 84 | 344 | 0.0 | 0.0 | 0.00 | 0.00 | 0.00 | 100 | 1015.0 |
| 20260906002735 | 84 | 344 | 0.0 | 0.0 | 0.00 | 0.00 | 0.00 | 100 | 1015.2 |
| 20260906002235 | 85 | 344 | 0.0 | 0.0 | 0.00 | 0.00 | 0.00 | 100 | 1015.0 |
| 20260906001958 | 85 | 344 | 0.0 | 0.0 | 0.00 | 0.00 | 0.00 | 100 | 1015.1 |
| 20260906001735 | 85 | 344 | 0.0 | 0.0 | 0.00 | 0.00 | 0.00 | 100 | 1015.1 |
| 20260906001235 | 85 | 344 | 0.0 | 0.0 | 0.00 | 0.00 | 0.00 | 100 | 1015.1 |
| 20260906000735 | 85 | 344 | 0.0 | 0.0 | 0.00 | 0.00 | 0.00 | 100 | 1015.1 |
| 20260906000235 | 86 | 344 | 0.0 | 0.0 | 0.00 | 0.00 | 0.00 | 100 | 1015.0 |
| 20260905235735 | 86 | 344 | 0.0 | 2.0 | 0.00 | 0.00 | 0.00 | 100 | 1015.0 |
| 20260905235235 | 86 | 268 | 0.0 | 3.0 | 0.00 | 0.00 | 0.00 | 100 | 1015.0 |
| 20260905234735 | 87 | 313 | 1.0 | 3.0 | 0.00 | 0.00 | 0.00 | 100 | 1015.0 |
| 20260905234235 | 87 | 354 | 0.0 | 4.0 | 0.00 | 0.00 | 0.00 | 100 | 1014.8 |
| 20260905233928 | 87 | 310 | 0.0 | 3.0 | 0.00 | 0.00 | 0.00 | 100 | 1014.7 |
| 20260905233735 | 87 | 310 | 0.0 | 3.0 | 0.00 | 0.00 | 0.00 | 100 | 1014.7 |
| 20260905233235 | 87 | 289 | 1.0 | 6.0 | 0.00 | 0.00 | 0.00 | 100 | 1014.7 |
| 20260905232736 | 88 | 352 | 5.0 | 6.0 | 0.00 | 0.00 | 0.00 | 100 | 1014.6 |
| 20260905232236 | 88 | 345 | 3.0 | 8.0 | 0.00 | 0.00 | 0.00 | 100 | 1014.6 |
| 20260905231736 | 88 | 358 | 4.0 | 8.0 | 0.00 | 0.00 | 0.00 | 100 | 1014.6 |
| 20260905231236 | 88 | 336 | 7.0 | 7.0 | 0.00 | 0.00 | 0.00 | 100 | 1014.7 |
| 20260905230736 | 89 | 323 | 3.0 | 6.0 | 0.00 | 0.00 | 0.00 | 100 | 1014.8 |
| 20260905230236 | 89 | 354 | 1.0 | 10.0 | 0.00 | 0.00 | 0.00 | 100 | 1014.9 |
| 20260905225736 | 89 | 281 | 2.0 | 9.0 | 0.00 | 0.00 | 0.00 | 100 | 1014.9 |
| 20260905225236 | 89 | 338 | 4.0 | 10.0 | 0.00 | 0.00 | 0.00 | 100 | 1014.8 |
| 20260905224736 | 90 | 357 | 6.0 | 10.0 | 0.00 | 0.00 | 0.00 | 100 | 1014.9 |
| 20260905224520 | 90 | 348 | 4.0 | 11.0 | 0.00 | 0.00 | 0.00 | 100 | 1014.8 |
| 20260905224236 | 90 | 348 | 4.0 | 11.0 | 0.00 | 0.00 | 0.00 | 100 | 1014.8 |
| 20260905223736 | 90 | 330 | 5.0 | 10.0 | 0.00 | 0.00 | 0.00 | 100 | 1014.6 |
| 20260905223451 | 90 | 327 | 6.0 | 7.0 | 0.00 | 0.00 | 0.00 | 100 | 1014.7 |
| 20260905223236 | 90 | 327 | 6.0 | 7.0 | 0.00 | 0.00 | 0.00 | 100 | 1014.7 |
| 20260905222736 | 90 | 326 | 7.0 | 10.0 | 0.00 | 0.00 | 0.00 | 100 | 1014.7 |
| 20260905222455 | 90 | 19 | 5.0 | 11.0 | 0.00 | 0.00 | 0.00 | 100 | 1014.6 |
| 20260905222236 | 90 | 19 | 5.0 | 11.0 | 0.00 | 0.00 | 0.00 | 100 | 1014.6 |
| 20260905221736 | 91 | 341 | 8.0 | 11.0 | 0.00 | 0.00 | 0.00 | 100 | 1014.6 |
| 20260905221236 | 91 | 358 | 8.0 | 13.0 | 0.00 | 0.00 | 0.00 | 100 | 1014.5 |
| 20260905220736 | 91 | 338 | 9.0 | 14.0 | 0.00 | 0.00 | 0.00 | 100 | 1014.6 |
| 20260905220546 | 91 | 334 | 3.0 | 10.0 | 0.00 | 0.00 | 0.00 | 100 | 1014.6 |
| 20260905220236 | 91 | 334 | 3.0 | 10.0 | 0.00 | 0.00 | 0.00 | 100 | 1014.6 |
| 20260905215736 | 92 | 15 | 2.0 | 14.0 | 0.00 | 0.00 | 0.00 | 100 | 1014.5 |
| 20260905215236 | 92 | 334 | 6.0 | 10.0 | 0.00 | 0.00 | 0.00 | 100 | 1014.4 |
| 20260905215008 | 92 | 312 | 7.0 | 9.0 | 0.00 | 0.00 | 0.00 | 100 | 1014.4 |
| 20260905214736 | 92 | 312 | 7.0 | 9.0 | 0.00 | 0.00 | 0.00 | 100 | 1014.4 |
| 20260905214236 | 92 | 337 | 5.0 | 9.0 | 0.00 | 0.00 | 0.00 | 100 | 1014.4 |
| 20260905213736 | 93 | 14 | 2.0 | 12.0 | 0.00 | 0.00 | 0.00 | 100 | 1014.4 |
| 20260905213236 | 93 | 317 | 6.0 | 11.0 | 0.00 | 0.00 | 0.00 | 100 | 1014.2 |
| 20260905212736 | 94 | 330 | 8.0 | 15.0 | 0.00 | 0.00 | 0.00 | 100 | 1014.2 |
| 20260905212236 | 94 | 315 | 5.0 | 16.0 | 0.00 | 0.00 | 0.00 | 100 | 1014.2 |
| 20260905212029 | 94 | 303 | 9.0 | 9.0 | 0.00 | 0.00 | 0.00 | 100 | 1014.3 |
| 20260905211736 | 94 | 303 | 9.0 | 9.0 | 0.00 | 0.00 | 0.00 | 100 | 1014.3 |
| 20260905211236 | 94 | 331 | 7.0 | 11.0 | 0.00 | 0.00 | 0.00 | 100 | 1014.3 |
| 20260905210736 | 94 | 295 | 4.0 | 9.0 | 0.00 | 0.00 | 0.00 | 100 | 1014.4 |
| 20260905210236 | 94 | 319 | 4.0 | 15.0 | 0.00 | 0.00 | 0.00 | 100 | 1014.4 |
| 20260905210040 | 94 | 286 | 9.0 | 13.0 | 0.00 | 0.00 | 0.00 | 100 | 1014.4 |
| 20260905205737 | 94 | 286 | 9.0 | 13.0 | 0.00 | 0.00 | 0.00 | 100 | 1014.4 |
| 20260905205236 | 94 | 299 | 5.0 | 12.0 | 0.00 | 0.00 | 0.00 | 100 | 1014.4 |
| 20260905204736 | 94 | 279 | 3.0 | 10.0 | 0.00 | 0.00 | 0.00 | 100 | 1014.3 |
| 20260905204236 | 94 | 333 | 7.0 | 11.0 | 0.00 | 0.00 | 0.00 | 100 | 1014.3 |
| 20260905203736 | 94 | 293 | 5.0 | 12.0 | 0.00 | 0.00 | 0.00 | 100 | 1014.3 |
| 20260905203236 | 94 | 309 | 5.0 | 14.0 | 0.00 | 0.00 | 0.00 | 100 | 1014.3 |
| 20260905203125 | 94 | 309 | 8.0 | 14.0 | 0.00 | 0.00 | 0.00 | 100 | 1014.1 |
| 20260905202736 | 94 | 309 | 8.0 | 14.0 | 0.00 | 0.00 | 0.00 | 100 | 1014.1 |
| 20260905202236 | 95 | 313 | 14.0 | 14.0 | 0.00 | 0.00 | 0.00 | 100 | 1014.2 |
| 20260905201736 | 95 | 254 | 2.0 | 13.0 | 0.00 | 0.00 | 0.00 | 100 | 1014.2 |
| 20260905201236 | 95 | 295 | 4.0 | 10.0 | 0.00 | 0.00 | 0.00 | 100 | 1014.2 |
| 20260905201028 | 95 | 9 | 4.0 | 14.0 | 0.00 | 0.00 | 0.00 | 100 | 1014.2 |
| 20260905200736 | 95 | 9 | 4.0 | 14.0 | 0.00 | 0.00 | 0.00 | 100 | 1014.2 |
| 20260905200627 | 96 | 298 | 11.0 | 15.0 | 0.00 | 0.00 | 0.00 | 100 | 1014.3 |
| 20260905200236 | 96 | 298 | 11.0 | 15.0 | 0.00 | 0.00 | 0.00 | 100 | 1014.3 |
| 20260905200107 | 96 | 305 | 4.0 | 11.0 | 0.00 | 0.00 | 0.00 | 100 | 1014.3 |
| 20260905195736 | 96 | 305 | 4.0 | 11.0 | 0.00 | 0.00 | 0.00 | 100 | 1014.3 |
| 20260905195624 | 96 | 270 | 6.0 | 12.0 | 0.00 | 0.00 | 0.00 | 100 | 1014.4 |
| 20260905195236 | 96 | 270 | 6.0 | 12.0 | 0.00 | 0.00 | 0.00 | 100 | 1014.4 |
| 20260905195141 | 96 | 250 | 3.0 | 13.0 | 0.00 | 0.00 | 0.00 | 100 | 1014.4 |
| 20260905194736 | 96 | 250 | 3.0 | 13.0 | 0.00 | 0.00 | 0.00 | 100 | 1014.4 |
| 20260905194236 | 96 | 281 | 8.0 | 8.0 | 0.00 | 0.00 | 0.00 | 100 | 1014.4 |
| 20260905193736 | 97 | 336 | 6.0 | 13.0 | 0.00 | 0.00 | 0.00 | 100 | 1014.5 |
| 20260905193612 | 97 | 310 | 9.0 | 12.0 | 0.00 | 0.00 | 0.00 | 100 | 1014.6 |
| 20260905193236 | 97 | 310 | 9.0 | 12.0 | 0.00 | 0.00 | 0.00 | 100 | 1014.6 |
| 20260905193117 | 97 | 12 | 6.0 | 12.0 | 0.00 | 0.00 | 0.00 | 100 | 1014.6 |
| 20260905192737 | 97 | 12 | 6.0 | 12.0 | 0.00 | 0.00 | 0.00 | 100 | 1014.6 |
| 20260905192507 | 97 | 293 | 3.0 | 12.0 | 0.00 | 0.00 | 0.00 | 100 | 1014.7 |
| 20260905192237 | 97 | 293 | 3.0 | 12.0 | 0.00 | 0.00 | 0.00 | 100 | 1014.7 |
| 20260905192114 | 98 | 270 | 11.0 | 14.0 | 0.00 | 0.00 | 0.00 | 100 | 1014.9 |
| 20260905191737 | 98 | 270 | 11.0 | 14.0 | 0.00 | 0.00 | 0.00 | 100 | 1014.9 |
| 20260905191237 | 98 | 285 | 12.0 | 12.0 | 0.00 | 0.00 | 0.00 | 100 | 1014.9 |
| 20260905191147 | 99 | 274 | 5.0 | 14.0 | 0.00 | 0.00 | 0.00 | 100 | 1014.9 |
| 20260905190737 | 99 | 274 | 5.0 | 14.0 | 0.00 | 0.00 | 0.00 | 100 | 1014.9 |
| 20260905190628 | 99 | 322 | 8.0 | 11.0 | 0.00 | 0.00 | 0.00 | 100 | 1014.9 |
| 20260905190237 | 99 | 322 | 8.0 | 11.0 | 0.00 | 0.00 | 0.00 | 100 | 1014.9 |